Regional Weather Roundup
Issued by NWS

Home | Current Version | Previous Version | Graphics & Text | Print | Product List | Glossary On
Versions: 1 2 3 4 5 6 7 8 9 10 11 12 13 14 15 16 17 18 19 20 21 22 23 24 25 26 27 28 29 30 31 32 33 34 35 36 37 38 39 40 41 42 43 44 45 46 47 48 49 50
000
ASUS43 KFSD 172110
RWRSD

WEATHER ROUNDUP FOR SOUTH DAKOTA
NATIONAL WEATHER SERVICE SIOUX FALLS SD
300 PM CST FRI NOV 17 2017

NOTE: "FAIR" INDICATES FEW OR NO CLOUDS BELOW 12,000 FEET WITH NO
SIGNIFICANT WEATHER AND/OR OBSTRUCTIONS TO VISIBILITY.


SDZ001>005-009-010-012>017-172200-
NORTHWEST AND NORTH CENTRAL SOUTH DAKOTA

CITY           SKY/WX    TMP DP  RH WIND       PRES   REMARKS
BUFFALO          N/A     44  33  65 W8        29.58S
FAITH            N/A     41  37  86 SW10      29.65F
MOBRIDGE       CLOUDY    43  30  60 NE7       29.64S
$$

SDZ012>016-024>037-041>051-057-063-072>074-172200-
SOUTHWEST AND SOUTH CENTRAL SOUTH DAKOTA

CITY           SKY/WX    TMP DP  RH WIND       PRES   REMARKS
RAPID CTY ARPT CLOUDY    42  33  70 SE3       29.63F
PIERRE         CLOUDY    44  36  73 NW10      29.65F
CUSTER         CLOUDY    34  31  88 SW7       29.60F WCI  28
ELLSWORTH AFB  CLOUDY    41  41 100 NE6       29.63S
PHILIP         CLOUDY    43  37  79 NW6       29.65F
PINE RIDGE     CLOUDY    45  29  53 S8        29.61F
SPEARFISH      LGT RAIN  37  37 100 NW6       29.65F
WINNER         MOCLDY    47  35  63 N12       29.65S
$$

SDZ004>011-016>023-039-040-172200-
NORTHEAST SOUTH DAKOTA

CITY           SKY/WX    TMP DP  RH WIND       PRES   REMARKS
ABERDEEN       CLOUDY    41  29  62 N12       29.67R
WATERTOWN      CLOUDY    44  34  67 N14       29.59R
BROOKINGS      CLOUDY    43  33  68 NE9       29.59R
SISSETON         N/A     40  31  70 N14       29.63R
$$

SDZ017-020-022-023-036>040-048>070-172200-
SOUTHEAST SOUTH DAKOTA

CITY           SKY/WX    TMP DP  RH WIND       PRES   REMARKS
SIOUX FALLS    CLOUDY    48  39  71 N13       29.56F
HURON          CLOUDY    48  33  56 N14       29.63R
CHAMBERLAIN    CLOUDY    47  37  67 N10       29.64S
MITCHELL       PTSUNNY   48  33  56 N13       29.62R
YANKTON        PTSUNNY   50  37  61 N12       29.55F
$$

ABBREVIATIONS USED IN REMARKS
   TC - TEMPERATURE IN CELSIUS
  WCI - WIND CHILL INDEX
   HX - HEAT INDEX
  VSB - VISIBILITY





USA.gov is the U.S. government's official web portal to all federal, state and local government web resources and services.